Wind_Speed
23 24 23 26 29 32 30 33 29 25 25 22 24 25 22 19 16 13 10 8 6 5 6 5 4 3 4 4 3 4 3 3 1 0 1 2 4 5 3 8 12 12 9 6 6 6 6 7 8
21 22 21 22 30 28 29 29 23 23 23 23 25 23 20 19 17 16 12 10 7 6 7 7 5 4 4 5 4 4 4 3 1 1 0 2 2 4 6 5 6 9 10 9 7 7 8 7 9
19 20 18 24 31 29 27 26 25 21 21 21 21 22 20 17 15 17 15 11 9 10 9 8 6 5 4 5 5 5 5 4 2 3 4 4 4 2 2 2 3 8 8 6 8 9 10 10 10
13 14 21 29 29 27 24 25 26 20 21 19 22 22 17 15 19 17 13 11 11 12 13 11 8 7 3 1 4 6 6 5 2 3 3 3 4 5 3 4 5 6 8 7 6 8 11 12 12
11 12 17 21 25 26 24 24 22 20 19 19 22 19 19 22 22 18 17 15 13 14 15 13 11 8 5 3 1 1 2 4 6 5 3 3 2 2 2 3 3 6 7 7 7 8 10 11 12
4 10 14 17 23 24 23 20 18 18 18 19 18 19 18 21 22 21 19 17 17 17 17 16 13 10 7 5 3 2 1 2 3 4 5 4 6 4 4 4 3 2 3 13 9 9 8 9 10
4 8 6 11 17 16 21 17 15 14 17 20 20 21 18 21 23 23 19 19 21 18 16 17 13 11 8 4 4 4 3 3 4 6 5 5 5 5 6 8 7 5 2 8 13 11 9 10 10
1 4 11 11 12 16 16 16 13 12 16 20 23 20 17 22 22 21 21 22 21 20 17 18 17 15 11 3 0 2 3 3 4 6 7 6 7 7 7 8 9 9 8 5 10 14 12 13 13
3 9 9 8 12 20 16 22 15 17 20 20 20 17 18 23 22 22 19 19 18 17 16 16 16 17 15 12 6 3 4 4 5 7 8 8 8 8 6 8 8 10 12 9 8 13 14 14 14
8 8 13 11 19 19 18 20 19 23 20 20 19 17 20 22 25 24 22 20 20 18 16 14 14 14 14 12 8 6 3 7 7 8 10 10 10 12 9 10 10 9 11 12 12 13 15 19 17
4 9 12 12 13 17 21 22 18 24 22 21 24 19 20 22 25 26 23 22 21 20 18 14 10 10 13 12 9 7 6 5 10 11 11 12 12 15 13 11 10 9 11 12 13 12 13 20 18
8 7 4 1 11 15 18 17 20 21 24 19 19 19 19 19 21 24 23 23 21 21 20 17 11 9 11 13 14 12 10 9 7 12 12 12 13 15 17 13 10 12 10 11 12 12 13 17 17
11 13 10 8 5 10 10 12 18 21 24 25 21 19 19 21 21 20 21 21 21 21 22 19 13 14 15 15 17 17 13 10 12 12 13 16 16 15 16 13 13 14 13 13 14 14 13 14 14
17 17 13 12 3 5 3 5 12 17 17 20 22 20 20 21 20 19 18 19 22 21 19 19 16 15 15 15 17 17 14 12 13 12 14 20 20 18 18 15 15 16 14 15 15 13 15 16 17
23 16 11 5 6 3 3 3 9 12 12 15 21 21 21 23 21 20 19 20 22 21 19 16 16 16 15 17 17 19 19 9 12 12 14 14 17 20 21 14 17 17 15 15 14 16 18 19 22
24 25 16 9 8 8 8 10 8 8 7 11 12 15 22 22 22 21 20 21 23 21 19 17 18 18 17 18 18 18 20 16 12 3 6 13 11 12 14 16 15 15 16 16 16 18 21 22 19
22 15 13 12 13 13 13 12 13 10 9 7 10 16 20 18 22 20 22 21 23 21 20 20 22 20 21 21 20 17 18 19 11 6 7 7 12 13 12 15 15 15 13 12 15 16 18 23 26
21 20 17 17 18 20 20 17 17 9 3 6 7 16 14 21 20 19 21 22 23 22 22 20 21 20 20 22 21 17 18 18 16 9 3 7 11 11 14 16 15 15 13 14 16 20 18 14 15
25 22 18 13 22 27 25 25 22 23 11 7 8 9 18 24 18 20 21 22 22 23 20 19 19 21 21 21 22 17 17 18 16 14 6 7 8 11 14 16 15 16 17 17 17 23 23 18 19
27 29 18 16 8 11 22 14 19 24 17 16 12 12 17 22 18 19 23 23 24 22 18 16 18 19 20 21 22 21 18 17 15 14 10 6 8 9 12 12 16 15 20 21 19 16 13 11 13
35 29 19 13 11 11 19 21 20 19 17 13 11 11 17 18 23 23 23 25 31 21 16 17 15 6 16 21 22 23 20 18 17 15 14 8 8 13 16 15 15 12 13 16 14 11 12 12 14
30 26 25 19 17 19 21 20 20 19 18 14 10 7 8 16 22 23 23 29 33 23 19 22 20 14 18 22 26 27 24 17 15 16 15 13 9 13 15 16 16 15 13 15 17 12 12 13 14
36 26 24 21 20 21 17 22 16 19 20 16 17 14 6 12 17 20 25 29 22 23 27 26 5 14 20 23 27 30 26 17 16 15 16 18 12 12 15 18 19 18 15 14 17 13 14 12 11
37 32 28 23 24 26 22 25 19 22 25 27 22 19 12 11 17 17 22 27 20 22 28 35 6 19 20 23 24 26 26 19 17 20 21 23 15 13 13 15 18 19 20 18 18 15 13 11 11
30 27 27 27 26 27 26 27 27 27 19 13 16 14 16 13 17 17 22 25 14 15 20 26 25 18 21 26 28 25 24 22 22 26 18 22 22 20 15 11 12 14 17 16 16 14 13 11 11
27 27 25 27 35 34 31 29 30 21 14 14 11 16 17 22 28 25 15 21 12 13 13 18 22 21 21 24 26 24 24 24 28 22 11 13 23 21 15 11 10 10 12 14 15 14 13 12 12
26 21 20 22 23 27 28 26 24 16 15 13 12 16 22 26 30 28 38 31 12 5 10 17 17 21 18 22 26 23 23 22 27 21 9 7 15 17 13 14 12 10 11 12 10 11 11 10 11
25 18 20 21 21 22 23 26 24 22 19 18 20 22 26 30 30 35 37 36 12 6 11 12 15 17 21 21 24 23 20 21 22 20 9 6 10 13 10 12 11 10 13 12 11 10 10 11 13
22 18 16 16 23 23 22 24 20 16 22 21 23 26 27 29 29 43 55 47 26 12 3 12 16 18 21 19 23 23 20 21 21 21 10 6 7 11 9 10 9 11 11 12 12 11 11 11 12
24 24 20 18 16 26 24 23 21 16 18 20 25 26 25 28 31 46 60 9 8 6 3 11 13 20 18 19 20 22 18 17 19 20 14 12 5 3 5 9 11 11 9 10 10 12 12 12 14
Wind_Direction
52 50 56 61 57 58 57 53 46 50 58 59 55 55 52 46 41 45 38 45 49 60 96 94 66 85 96 95 99 88 71 88 151 2 47 53 37 76 118 183 149 158 152 152 160 158 154 135 138
53 56 59 59 59 55 51 61 49 44 50 50 50 51 52 53 44 48 34 36 42 56 66 63 59 64 93 107 103 91 92 116 184 235 4 53 76 88 82 119 154 149 135 152 160 169 155 155 148
54 64 58 65 60 54 50 53 52 42 44 42 49 46 41 43 43 42 45 40 39 39 49 48 33 43 104 128 112 99 92 88 123 114 115 124 137 135 174 181 132 187 187 157 166 169 169 162 157
65 56 61 68 67 59 51 53 52 42 47 55 51 41 42 39 49 44 42 42 43 44 42 34 31 23 21 140 142 134 131 120 126 140 125 124 140 172 220 219 224 182 178 176 167 173 170 168 164
77 37 67 71 72 62 53 52 55 45 41 40 51 43 39 39 37 39 39 36 37 50 49 43 35 21 1 343 339 118 150 153 162 186 204 214 212 180 202 203 230 213 228 204 178 177 175 174 167
50 57 70 70 73 68 56 53 45 39 29 32 37 41 31 30 39 47 43 39 40 45 47 44 36 28 2 337 327 305 294 256 245 202 203 223 240 234 245 218 209 214 263 211 197 184 181 175 172
325 75 86 28 45 66 64 41 36 35 36 36 30 37 29 31 43 45 46 46 46 49 50 40 32 23 7 327 339 331 328 288 268 267 231 216 243 241 238 247 239 232 237 213 207 193 182 176 179
44 335 29 27 38 62 89 63 18 19 44 39 35 43 44 43 43 46 47 49 51 56 52 41 39 36 16 4 116 334 317 292 268 259 260 240 238 243 235 230 234 237 243 247 232 212 196 190 184
121 52 65 39 51 32 53 39 8 14 31 26 44 43 37 41 37 42 45 46 50 48 45 44 36 39 47 59 37 342 278 260 245 245 255 253 251 247 241 241 222 226 234 232 223 207 206 203 199
236 71 65 66 29 42 58 22 35 20 20 20 35 39 32 30 31 29 32 35 39 40 41 39 40 35 38 42 23 359 315 271 253 237 223 233 237 241 225 227 230 220 227 228 224 223 221 207 210
204 77 60 38 25 57 43 43 27 23 10 10 8 20 15 18 24 22 25 25 32 35 26 25 32 41 36 29 22 350 313 299 242 240 230 224 225 236 229 218 223 219 225 229 229 232 218 212 212
161 141 199 289 57 65 45 32 26 26 10 356 6 360 8 9 22 22 19 18 20 30 26 18 14 26 37 29 19 356 338 308 277 254 238 231 222 230 232 212 213 219 221 233 235 233 228 222 225
185 175 188 231 57 59 31 44 32 41 26 17 2 354 357 355 12 17 15 12 15 24 30 27 31 39 30 28 13 4 339 308 284 262 238 232 234 234 232 223 212 216 213 222 230 229 235 240 236
209 193 208 224 203 83 28 54 56 33 19 1 349 350 354 353 358 360 8 12 10 14 29 31 29 29 16 16 13 9 358 330 302 268 254 219 224 235 233 219 226 224 216 222 229 234 243 237 238
195 216 227 254 218 164 293 348 54 359 357 353 339 342 354 348 347 352 1 12 10 12 22 27 19 19 11 5 6 7 6 337 311 271 245 206 219 222 234 221 222 230 223 224 225 230 237 252 241
228 240 248 259 313 310 315 333 6 1 320 349 332 347 2 359 346 343 355 9 9 13 19 23 24 14 8 2 356 1 4 2 345 57 203 207 204 201 212 220 220 226 233 239 233 240 246 238 254
243 244 255 265 263 281 298 305 318 306 287 29 32 28 347 315 339 342 351 9 6 10 17 21 19 13 1 0 355 355 10 11 0 336 272 218 183 218 225 227 210 208 212 224 242 254 256 257 239
223 224 235 248 266 263 264 269 270 266 311 357 34 12 5 0 351 355 352 1 8 5 16 17 17 9 359 360 360 353 360 12 11 340 319 212 217 233 229 218 221 219 219 229 247 253 261 265 242
219 228 262 247 255 264 255 265 265 273 305 2 312 290 321 332 333 348 346 357 6 2 2 9 360 12 6 2 354 356 355 356 8 3 305 282 267 231 211 208 214 221 219 243 248 251 264 258 250
228 242 244 246 274 289 249 241 245 263 275 301 313 351 319 319 326 342 337 351 358 354 353 352 351 359 13 358 355 351 344 342 348 357 354 265 261 230 212 215 218 227 236 238 254 247 214 229 230
232 236 227 218 195 206 213 241 229 239 261 279 282 342 326 312 320 321 332 348 351 337 344 337 327 344 2 357 346 348 345 331 328 335 340 331 246 239 225 228 224 234 228 228 226 214 224 233 249
227 237 237 231 206 189 216 224 217 234 245 264 293 322 311 309 308 306 330 345 338 319 328 331 26 353 354 349 343 339 335 325 317 316 320 316 309 252 245 230 227 228 236 234 228 232 239 251 254
229 229 243 219 219 206 222 240 231 254 264 280 276 290 291 298 304 306 332 331 326 310 316 306 31 13 349 350 346 340 339 328 305 298 297 295 295 288 255 239 234 239 240 233 233 242 239 241 248
225 231 233 229 220 243 253 261 262 277 286 289 272 292 294 287 299 314 327 320 313 313 319 305 341 9 346 348 347 348 334 326 311 295 288 276 270 270 264 256 243 242 241 238 240 245 247 242 247
219 222 239 241 242 253 251 258 266 274 281 294 284 303 303 273 293 299 304 303 300 302 324 332 351 1 348 347 347 348 348 336 325 312 298 251 256 251 250 254 246 242 246 245 248 251 254 247 248
223 232 246 252 246 246 253 258 260 261 305 287 293 281 288 292 287 274 242 260 278 298 325 326 342 351 348 351 345 350 354 344 336 323 279 239 252 239 240 245 248 240 243 244 244 247 249 251 249
236 231 240 250 256 257 251 245 244 269 297 294 298 314 319 305 306 293 295 245 209 251 316 330 335 341 341 349 344 349 354 353 348 330 278 252 238 224 241 243 247 239 248 249 254 257 254 246 232
229 228 237 233 247 254 243 240 254 271 290 296 292 298 310 320 306 287 314 307 220 187 337 308 328 340 336 343 347 352 354 4 358 351 300 256 220 204 249 243 255 263 252 250 255 254 244 233 216
227 223 237 241 241 247 244 246 270 270 272 293 296 308 321 312 304 314 314 306 209 176 346 320 335 342 335 340 350 353 354 7 9 6 20 253 229 213 233 244 266 272 266 262 255 246 233 221 208
220 215 223 232 244 247 254 260 273 271 282 295 296 303 304 310 315 327 315 188 222 152 302 316 337 332 332 338 354 356 357 1 10 8 1 1 354 278 251 256 258 263 267 262 253 238 222 212 217
Height
5915 5914 5913 5910 5909 5904 5905 5903 5903 5903 5901 5899 5896 5894 5894 5894 5894 5895 5892 5891 5890 5889 5886 5885 5885 5885 5884 5884 5884 5883 5884 5884 5885 5885 5885 5885 5885 5884 5883 5885 5886 5888 5890 5892 5894 5895 5897 5898 5899
5918 5916 5915 5913 5910 5908 5907 5905 5909 5906 5903 5900 5897 5897 5897 5897 5897 5895 5895 5893 5891 5889 5887 5885 5885 5885 5885 5885 5885 5884 5884 5884 5884 5885 5885 5885 5885 5886 5886 5886 5886 5889 5889 5891 5893 5895 5897 5898 5900
5922 5920 5919 5915 5912 5910 5912 5911 5909 5910 5905 5902 5901 5901 5902 5900 5899 5896 5894 5893 5892 5890 5888 5886 5886 5886 5886 5886 5885 5884 5885 5886 5885 5886 5886 5886 5886 5887 5887 5887 5888 5887 5890 5891 5893 5895 5897 5898 5900
5924 5925 5923 5918 5916 5915 5916 5914 5912 5912 5910 5908 5905 5905 5905 5904 5899 5897 5897 5896 5893 5891 5889 5888 5888 5888 5887 5886 5885 5884 5884 5886 5887 5887 5887 5887 5887 5888 5889 5889 5890 5891 5892 5893 5895 5897 5897 5898 5899
5926 5926 5924 5923 5920 5918 5918 5916 5916 5917 5916 5912 5908 5909 5907 5905 5899 5897 5896 5896 5893 5890 5889 5889 5889 5889 5888 5886 5886 5885 5885 5885 5886 5887 5887 5888 5889 5890 5890 5890 5890 5891 5892 5893 5895 5897 5899 5899 5900
5929 5926 5926 5924 5922 5920 5920 5920 5920 5920 5919 5915 5913 5910 5909 5908 5903 5900 5899 5898 5894 5890 5890 5890 5889 5888 5887 5886 5885 5884 5885 5885 5886 5886 5886 5888 5889 5890 5890 5890 5891 5891 5893 5895 5896 5898 5899 5901 5903
5927 5927 5926 5926 5925 5924 5923 5924 5923 5922 5920 5919 5916 5912 5912 5909 5906 5903 5901 5897 5894 5891 5891 5891 5888 5887 5886 5885 5885 5884 5884 5885 5886 5886 5887 5887 5888 5889 5890 5891 5891 5892 5893 5894 5897 5898 5900 5902 5904
5928 5929 5928 5927 5926 5930 5926 5925 5927 5925 5922 5921 5919 5915 5913 5910 5907 5905 5901 5897 5895 5893 5892 5891 5888 5886 5884 5883 5884 5884 5884 5884 5885 5885 5886 5888 5887 5888 5889 5890 5891 5892 5893 5894 5895 5898 5900 5901 5902
5932 5931 5932 5931 5930 5931 5934 5931 5930 5928 5925 5925 5921 5919 5917 5912 5911 5907 5903 5899 5897 5894 5892 5889 5888 5886 5884 5884 5883 5883 5882 5882 5882 5883 5884 5885 5887 5888 5888 5888 5890 5891 5892 5894 5895 5896 5900 5901 5903
5934 5931 5933 5932 5934 5936 5935 5932 5930 5930 5930 5929 5925 5923 5920 5915 5912 5908 5905 5901 5898 5895 5893 5890 5888 5886 5885 5884 5882 5882 5881 5881 5880 5881 5882 5882 5885 5886 5888 5888 5888 5889 5890 5892 5894 5895 5896 5898 5901
5934 5932 5932 5934 5935 5936 5934 5932 5933 5932 5932 5930 5928 5924 5920 5916 5912 5909 5905 5903 5899 5895 5893 5890 5889 5886 5884 5884 5881 5880 5879 5878 5877 5877 5879 5880 5881 5883 5886 5887 5888 5888 5889 5891 5893 5894 5895 5896 5899
5933 5931 5929 5932 5934 5934 5935 5935 5933 5933 5933 5930 5929 5926 5921 5916 5912 5911 5907 5904 5900 5896 5894 5890 5887 5885 5883 5884 5881 5879 5877 5876 5876 5875 5876 5877 5878 5880 5883 5884 5886 5887 5888 5890 5891 5893 5894 5895 5897
5933 5931 5928 5929 5931 5933 5935 5936 5934 5935 5934 5932 5929 5926 5923 5919 5914 5912 5910 5908 5904 5899 5894 5890 5887 5886 5884 5883 5880 5877 5875 5871 5870 5869 5872 5874 5876 5876 5879 5883 5884 5885 5886 5888 5890 5891 5892 5894 5896
5934 5931 5929 5929 5931 5933 5934 5935 5932 5934 5934 5931 5928 5925 5923 5921 5918 5915 5912 5909 5906 5902 5895 5891 5889 5887 5885 5883 5880 5877 5874 5870 5868 5866 5868 5870 5873 5875 5877 5880 5882 5883 5885 5887 5889 5890 5891 5892 5893
5933 5931 5931 5929 5930 5931 5933 5934 5933 5935 5933 5931 5929 5927 5923 5919 5919 5917 5914 5909 5907 5902 5896 5891 5889 5887 5885 5883 5880 5877 5872 5867 5865 5864 5863 5867 5870 5872 5874 5878 5880 5881 5883 5884 5887 5888 5890 5890 5890
5932 5931 5930 5929 5929 5929 5931 5930 5931 5933 5934 5932 5930 5928 5924 5920 5919 5918 5915 5909 5905 5902 5896 5891 5889 5888 5886 5883 5879 5876 5871 5866 5862 5859 5863 5865 5867 5870 5872 5875 5878 5879 5881 5882 5884 5885 5886 5888 5888
5927 5928 5927 5927 5927 5925 5926 5927 5927 5929 5933 5933 5930 5929 5926 5921 5920 5918 5916 5910 5907 5902 5897 5892 5892 5889 5887 5884 5879 5876 5873 5869 5865 5864 5864 5865 5866 5869 5870 5873 5875 5876 5878 5879 5881 5882 5883 5884 5884
5925 5926 5926 5924 5924 5922 5924 5928 5927 5929 5932 5932 5930 5928 5928 5925 5919 5917 5916 5911 5906 5902 5897 5893 5892 5889 5886 5881 5879 5876 5874 5871 5867 5865 5865 5866 5866 5867 5868 5870 5873 5874 5876 5878 5879 5880 5880 5880 5879
5922 5924 5927 5928 5925 5923 5923 5927 5925 5925 5928 5929 5929 5926 5926 5923 5919 5915 5914 5910 5903 5900 5897 5896 5892 5889 5887 5885 5880 5876 5873 5871 5868 5866 5865 5865 5864 5864 5865 5867 5870 5872 5873 5875 5876 5877 5876 5877 5877
5916 5920 5925 5926 5924 5923 5923 5927 5926 5925 5926 5926 5928 5924 5924 5923 5918 5916 5914 5910 5903 5899 5896 5896 5892 5888 5886 5884 5881 5877 5873 5871 5869 5867 5866 5865 5864 5863 5864 5866 5867 5869 5871 5873 5873 5874 5875 5876 5876
5914 5917 5922 5922 5922 5922 5924 5924 5925 5926 5926 5927 5925 5922 5922 5921 5916 5914 5913 5907 5902 5897 5894 5892 5886 5883 5885 5882 5881 5878 5874 5871 5867 5865 5863 5863 5863 5863 5862 5864 5865 5867 5868 5870 5870 5872 5873 5874 5875
5910 5914 5916 5917 5918 5919 5919 5920 5921 5922 5922 5923 5922 5921 5920 5920 5917 5914 5911 5905 5900 5897 5892 5888 5883 5881 5881 5880 5878 5875 5873 5870 5866 5863 5860 5860 5861 5860 5860 5861 5862 5864 5866 5867 5868 5869 5870 5871 5872
5907 5910 5911 5914 5913 5914 5916 5916 5919 5918 5918 5918 5918 5918 5919 5918 5916 5912 5910 5904 5898 5894 5883 5872 5874 5875 5878 5880 5877 5871 5867 5866 5863 5860 5859 5856 5856 5857 5858 5859 5860 5861 5862 5863 5866 5867 5867 5868 5867
5903 5905 5906 5909 5910 5909 5912 5911 5913 5913 5914 5913 5913 5914 5915 5915 5913 5911 5908 5902 5899 5894 5880 5863 5846 5868 5877 5878 5876 5871 5865 5862 5859 5855 5855 5852 5852 5853 5854 5856 5857 5858 5860 5861 5862 5862 5862 5863 5864
5898 5900 5901 5904 5905 5905 5908 5908 5908 5908 5909 5909 5910 5911 5910 5910 5910 5907 5903 5900 5896 5892 5886 5880 5876 5875 5875 5873 5872 5868 5863 5857 5852 5847 5844 5844 5846 5848 5850 5852 5854 5854 5856 5856 5857 5858 5859 5859 5860
5894 5896 5899 5900 5900 5902 5904 5902 5904 5904 5905 5905 5906 5905 5905 5903 5903 5899 5893 5894 5893 5891 5888 5885 5880 5878 5877 5873 5869 5866 5860 5855 5848 5841 5838 5837 5841 5843 5847 5850 5852 5852 5854 5855 5856 5856 5857 5858 5858
5891 5893 5895 5894 5895 5896 5899 5899 5900 5901 5901 5903 5902 5901 5902 5900 5898 5897 5890 5887 5880 5885 5888 5887 5883 5880 5878 5871 5868 5862 5858 5852 5846 5839 5835 5834 5836 5841 5844 5847 5849 5850 5851 5853 5854 5854 5854 5855 5856
5886 5889 5889 5889 5890 5892 5893 5895 5896 5897 5897 5898 5898 5898 5899 5895 5892 5888 5873 5882 5877 5875 5885 5886 5881 5877 5877 5871 5866 5860 5857 5852 5847 5841 5836 5835 5837 5840 5843 5846 5847 5848 5849 5850 5851 5851 5852 5853 5855
5882 5885 5885 5886 5886 5887 5888 5891 5890 5895 5896 5895 5894 5893 5893 5888 5889 5878 5864 5866 5865 5862 5875 5880 5875 5873 5873 5870 5864 5859 5855 5850 5847 5844 5839 5839 5839 5839 5841 5843 5844 5846 5847 5848 5849 5849 5850 5851 5852
5877 5879 5880 5879 5883 5884 5885 5888 5886 5890 5891 5892 5891 5890 5888 5886 5882 5876 5863 5853 5836 5858 5871 5874 5872 5872 5870 5868 5862 5857 5853 5850 5846 5845 5843 5841 5840 5840 5840 5842 5842 5844 5845 5846 5845 5847 5848 5848 5850